Zurück zum Katalog

CZ-4C R/B

AktivLEO
NORAD 40341·ROCKET BODY·🇨🇳 China

Gestartet Dec 10, 2014 von Jiuquan Satellite Launch Center

Loading…

Nächste Überflüge (nächste 24 Stunden)

TLE

AktuellSource: Space-Track

Epoche: Sep 14, 2026, 14:31 UTC

1 40341U 14080D   26257.60525721 -.00000013  00000-0  40746-4 0  9995
2 40341  63.4263 337.2898 0547445 352.9484   6.4068 13.69896798588070

Verfolge CZ-4C R/B in Echtzeit mit AllMySat

Download on the App Store